Location: Cornospital
(48.0620°N, 3.3837°W)
Time: 17:42:20
(UTC+00:00)

Daily predictions for brighter satellites

Satellite Brightness Start Highest point End
(mag) Time Altitude Azimuth Time Altitude Azimuth Time Altitude Azimuth
MetOp-B 4.2 20:50:28 10° SSE 20:55:48 77° ENE 21:01:11 10° NNW
Cosmos 1378 Rocket 4.0 20:52:08 10° SSW 20:56:27 68° W 21:00:50 10° N
BREEZE-M DEB (TANK) 3.1 20:57:33 10° S 20:59:07 15° SE 21:01:05 10° E
Cosmos 2333 Rocket 3.7 20:57:07 10° SE 21:00:47 18° E 21:04:26 10° ENE
Cosmos 1727 Rocket 4.1 20:55:04 10° S 21:01:18 64° E 21:07:30 10° NNE
Cosmos 1605 Rocket 4.4 20:57:15 10° NNW 21:03:38 70° W 21:09:56 10° S
Cosmos 1953 2.9 21:02:22 10° N 21:06:17 44° ENE 21:10:11 10° SSE
Meteor 2-20 4.5 21:00:29 10° S 21:06:35 85° E 21:12:42 10° N
Cosmos 1741 Rocket 4.1 21:01:35 10° NNW 21:06:52 70° ENE 21:12:07 10° SSE
Cosmos 1626 3.5 21:04:32 10° SE 21:07:25 22° E 21:10:19 10° NE
USA 238 DEB 4.0 21:01:19 10° SW 21:07:53 72° NW 21:14:51 10° NE
USA 238 4.0 21:01:26 10° SW 21:07:59 72° NW 21:14:57 10° NE
SPOT 3 Rocket 3.8 21:02:56 10° S 21:08:05 71° WSW 21:13:18 10° NNW
Cosmos 1844 4.2 21:05:46 10° NNW 21:11:12 50° NE 21:16:38 10° SE
Cosmos 2219 Rocket 3.7 21:08:07 10° SE 21:11:50 18° E 21:15:34 10° ENE
Cosmos 2285 Rocket 4.3 21:06:14 10° SSW 21:12:41 80° WNW 21:19:08 10° NNE
CENTAUR R/B 3.1 21:09:58 10° SW 21:16:00 68° NW 21:23:15 10° NE
Cosmos 1802 Rocket 4.4 21:11:33 10° N 21:17:38 50° ENE 21:23:39 10° SSE
NOSS 8 (A) 4.0 21:20:38 10° SW 21:23:59 77° SE 21:26:55 10° NE
KORONAS-FOTON 3.8 21:22:34 10° S 21:26:20 65° E 21:30:06 10° NNE
Cosmos 1025 Rocket 3.6 21:22:49 10° SSE 21:26:55 41° E 21:31:02 10° NNE
Cosmos 292 Rocket 4.3 21:23:06 10° SSW 21:27:54 63° WNW 21:32:42 10° NNE
Aureole 1 Rocket 4.1 21:23:13 10° NNW 21:28:56 76° ENE 21:35:50 12° SSE
Genesis I 4.3 21:25:48 10° WSW 21:29:34 48° NW 21:33:25 10° NNE
CARTOSAT-1 3.6 21:27:34 10° SSE 21:31:50 87° ENE 21:36:11 10° NNW
Cosmos 1459 Rocket 4.0 21:25:55 10° N 21:32:00 75° E 21:37:54 11° SSE
Cosmos 1461 2.8 21:28:26 10° NW 21:32:43 86° SW 21:36:05 14° SE
Resurs 01 Rocket 3.2 21:29:21 10° SSW 21:33:18 31° W 21:37:15 10° NNW
SL-16 R/B 2.7 21:27:59 10° SW 21:33:37 66° WNW 21:39:18 10° NNE
Cosmos 2360 Rocket 2.2 21:28:07 10° SSW 21:33:41 63° ESE 21:39:16 10° NNE
USA 245 4.4 21:30:32 10° S 21:35:17 68° W 21:41:03 10° NNW
Cosmos 2322 Rocket 2.4 21:29:59 10° SSW 21:35:41 79° WNW 21:41:27 10° NNE
JB-3 4.3 21:34:09 10° NNE 21:38:07 85° ESE 21:42:08 10° SSW
USA 267 4.3 21:32:14 10° E 21:38:23 46° NNE 21:44:34 10° WNW
Cosmos 1975 Rocket 3.2 21:36:23 10° SSW 21:40:43 79° W 21:45:09 10° N
Cosmos 1900 4.4 21:35:59 10° NNW 21:40:55 70° NE 21:44:58 15° SE
Cosmos 1000 Rocket 4.5 21:35:45 10° S 21:41:53 76° E 21:48:01 10° NNE
Cosmos 1674 2.7 21:39:07 10° SSW 21:42:49 80° W 21:46:33 10° N
Meteor 1-16 Rocket 4.3 21:38:31 10° NNW 21:44:01 76° W 21:49:14 11° S
Cosmos 1110 Rocket 4.0 21:39:13 10° S 21:44:20 68° ESE 21:49:32 10° NNE
ATLAS CENTAUR R/B 2.0 21:40:23 10° NNW 21:44:36 54° NE 21:48:22 14° ESE
Meteor 2-11 Rocket 4.5 21:38:56 10° N 21:45:05 84° E 21:50:42 12° S
SPOT 5 3.0 21:41:32 13° SSE 21:46:12 85° ENE 21:51:08 10° NNW
Cosmos 968 Rocket 4.4 21:44:40 10° N 21:49:26 37° ENE 21:53:28 14° ESE
Cosmos 1300 3.3 21:48:27 10° N 21:52:06 41° ENE 21:54:30 19° SE
COSMOS 2428 3.6 21:48:21 14° SSE 21:52:20 31° ESE 21:57:17 10° NE
Terra 1.9 21:49:22 16° SSE 21:53:12 72° ENE 21:57:58 10° N
Cosmos 2061 Rocket 4.1 21:47:24 10° N 21:53:52 71° E 21:59:13 15° SSE
Cosmos 2322 4.1 21:48:41 10° S 21:54:00 44° ESE 21:59:20 10° NE
Cosmos 2237 4.5 21:51:45 10° SSW 21:57:27 75° WNW 22:03:09 10° NNE
Cosmos 2278 Rocket 3.6 21:53:56 10° NNW 21:58:55 30° NE 22:03:52 10° ESE
Cosmos 405 3.1 21:56:22 10° N 21:59:47 59° ENE 22:01:49 22° SSE
Lacrosse 5 3.7 21:56:52 10° WNW 22:00:25 19° WSW 22:03:58 10° SSW
Cosmos 2123 Rocket 4.0 21:59:11 12° S 22:05:07 73° E 22:11:26 10° NNE
SL-8 R/B 3.9 22:03:08 10° W 22:07:48 52° SSW 22:10:57 20° SE
Cosmos 1844 Rocket 3.1 22:02:36 10° NW 22:08:09 56° WSW 22:12:33 16° S
Cosmos 1340 2.6 22:06:52 17° S 22:09:37 73° E 22:13:24 10° NNE
ARIANE 5 R/B 3.7 22:06:43 11° SSW 22:10:43 41° W 22:14:59 10° NNW
FALCON 9 DEB 3.1 22:09:18 10° WSW 22:12:44 83° NNW 22:16:09 10° ENE
Cosmos 1908 4.5 22:09:11 10° NNW 22:12:47 36° W 22:16:04 11° SSW
Cosmos 1346 Rocket 4.1 22:11:16 20° SE 22:12:51 25° E 22:16:11 10° NE
Cosmos 2233 Rocket 4.2 22:06:48 10° N 22:12:53 60° ENE 22:17:17 19° SSE
H-2A R/B 3.4 22:09:16 10° NNE 22:13:20 64° ESE 22:16:08 19° S
FALCON 9 DEB 3.4 22:11:23 10° SSW 22:14:15 36° SE 22:17:08 10° ENE
GEOS 3 Rocket 4.2 22:11:18 13° ESE 22:16:02 54° NE 22:21:14 10° NNW
FALCON 9 DEB 3.6 22:18:01 31° SE 22:18:04 31° SE 22:20:53 10° ENE
Cosmos 1544 Rocket 4.4 22:17:43 10° NNW 22:22:01 47° W 22:25:30 15° SSW
Meteor 2-5 Rocket 3.7 22:18:55 17° S 22:23:14 71° E 22:28:49 10° NNE
FALCON 9 DEB 3.2 22:21:31 16° SSW 22:23:40 40° SE 22:26:38 10° ENE
Lacrosse 5 rocket 0.9 22:22:01 10° SW 22:25:41 89° SE 22:29:17 10° NE
Cosmos 1606 Rocket 4.4 22:22:38 10° N 22:26:53 40° ENE 22:29:16 22° SE
ATLAS 3B R/B 2.6 22:20:38 10° SSW 22:27:07 71° SE 22:33:52 10° NE
ERS-1 Rocket 3.9 22:24:30 13° SSW 22:28:38 41° W 22:33:25 10° NNW
Cosmos 2333 4.3 22:27:13 10° SSW 22:32:59 83° WNW 22:38:45 10° NNE
ALOS 2 4.3 22:32:40 14° ESE 22:35:20 24° ENE 22:38:51 10° N
Cosmos 2016 Rocket 4.4 22:30:03 10° NNW 22:36:00 56° W 22:40:55 15° SSW
Spot 4 4.4 22:39:08 22° SE 22:41:53 47° ENE 22:46:29 10° N
Cosmos 1626 3.9 22:39:16 10° SW 22:42:29 28° WNW 22:45:45 10° NNW
Cosmos 2333 Rocket 2.3 22:38:34 10° SSW 22:44:19 82° WNW 22:50:06 10° NNE
USA 215 3.3 22:40:10 10° ENE 22:46:35 55° SE 22:52:58 10° SW
SL-14 R/B 4.4 22:44:01 13° SW 22:47:26 42° WNW 22:51:17 10° N
Cosmos 1302 Rocket 4.2 22:44:59 11° SSW 22:50:03 74° WNW 22:55:19 10° NNE
Meteor 2-10 Rocket 3.4 22:46:55 10° NNW 22:52:04 88° WSW 22:54:49 27° S
Cosmos 2219 Rocket 2.3 22:49:24 10° SSW 22:55:06 79° WNW 23:00:49 10° NNE
Cosmos 1536 Rocket 4.5 22:52:13 14° SSW 22:55:52 45° WNW 23:00:10 10° N
Cosmos 1464 Rocket 4.5 22:51:59 10° N 22:58:11 51° ENE 23:02:03 23° SE
Cosmos 1867 3.5 22:53:11 10° NW 22:58:42 85° SW 23:01:49 27° SSE
Cosmos 1607 4.3 22:53:53 10° NW 23:00:19 65° NE 23:05:04 18° SE
Cosmos 389 Rocket 2.4 22:59:35 10° NNW 23:03:00 77° W 23:04:01 42° S
Iridium 2 3.7 23:05:20 39° SSE 23:06:33 67° E 23:10:18 10° N
COBE Rocket 4.2 23:04:31 27° SE 23:07:10 59° ENE 23:12:02 10° N
Meteor 1-24 Rocket 3.9 23:03:16 18° SSW 23:07:17 64° WNW 23:12:45 10° N
SL-16 R/B 3.9 23:06:17 15° ESE 23:07:49 16° E 23:11:14 10° ENE
Cosmos 2237 Rocket 2.6 23:09:08 28° SSE 23:11:39 47° ESE 23:17:01 10° NE
Cosmos 2228 3.3 23:07:23 10° NNW 23:11:44 60° W 23:13:45 30° SSW
Meteor 1-4 Rocket 4.3 23:12:48 10° NNE 23:15:32 21° ENE 23:16:45 18° E
Cosmos 2360 Rocket 4.2 23:13:22 10° WSW 23:18:08 27° NW 23:22:55 10° N
Cosmos 1455 2.1 23:15:35 10° N 23:19:26 85° E 23:20:36 43° SSE
USA 267 3.3 23:14:47 11° ESE 23:21:02 84° NNE 23:27:38 10° NW
Cosmos 1486 Rocket 4.4 23:18:03 10° NNW 23:23:07 52° WSW 23:25:31 29° SSW
Cosmos 1184 Rocket 2.9 23:22:45 50° SE 23:23:07 53° E 23:26:19 10° NNE
ATLAS CENTAUR R/B 3.1 23:19:45 10° WNW 23:23:14 23° WSW 23:24:30 21° SW
Okean 1-7 Rocket 3.9 23:27:36 35° SSE 23:29:09 53° E 23:33:30 10° NNE
FALCON 9 DEB 2.9 23:26:41 15° WSW 23:29:13 76° NNW 23:32:22 10° ENE
Terra 4.1 23:28:41 10° SW 23:31:28 15° W 23:34:16 10° NW
Cosmos 2034 Rocket 4.2 23:26:11 10° N 23:32:21 64° ENE 23:35:44 27° SSE
Meteor 1-21 Rocket 4.3 23:33:20 31° S 23:36:03 68° E 23:41:45 10° NNE
COSMOS 2428 3.5 23:30:48 10° SW 23:36:22 50° NW 23:41:59 10° NNE
Cosmos 1354 Rocket 4.0 23:31:39 10° NNW 23:37:01 79° WSW 23:39:28 33° SSE
Cosmos 1992 Rocket 4.2 23:34:09 21° SW 23:37:38 68° WNW 23:42:53 10° NNE
FAST Rocket 4.4 23:37:31 54° SSE 23:38:04 67° E 23:42:16 10° NNE
Cosmos 192 4.3 23:38:55 35° S 23:40:56 67° ESE 23:45:50 10° NNE
Cosmos 2058 Rocket 3.1 23:38:30 10° NNW 23:42:58 72° W 23:44:34 38° S
Cosmos 2278 Rocket 2.5 23:37:47 10° NW 23:43:19 56° WSW 23:45:51 31° S
GENESIS II 4.1 23:46:52 37° SW 23:48:21 88° NW 23:52:17 10° NE
Cosmos 1346 Rocket 4.4 23:46:44 17° WSW 23:49:06 29° WNW 23:52:40 10° N
FALCON 9 DEB 3.8 23:46:48 10° W 23:49:48 47° NNW 23:52:50 10° ENE
FALCON 9 DEB 3.6 23:50:36 10° W 23:53:41 52° NNW 23:56:44 10° ENE
GEOS 3 Rocket 4.4 23:52:23 29° SSW 23:54:12 37° WSW 23:59:08 10° NW
